Weather History for Rickenbacker, OH

Change the Weather History Date:

Friday, December 13, 2013

  Actual Average Record
Temperature  
Mean Temperature 26 °F -  
Max Temperature 34 °F 41 °F 60 °F (2001)
Min Temperature 17 °F 27 °F 3 °F (1996)
Degree Days  
Heating Degree Days 40    
Moisture  
Dew Point 15 °F    
Average Humidity 59    
Maximum Humidity 83    
Minimum Humidity 48    
Precipitation  
Precipitation 0.00 in - - ()
Sea Level Pressure  
Sea Level Pressure 30.24 in    
Wind  
Wind Speed 6 mph (SSW)    
Max Wind Speed 9 mph    
Max Gust Speed -    
Visibility 10 miles    
Events Snow    
Averages and records for this station are not official NWS values.
T = Trace of Precipitation, MM = Missing Value Source: NWS Daily Summary

Daily Weather History Graph

Daily Weather History Graph

Search for Another Location

Airport:

Trip Planner

Search our weather history database for the weather conditions in past years. The results will help you decide how hot, cold, wet, or windy it might be!

Date:

Astronomy

Dec. 13, 2013 Rise Set
Actual Time 7:44 AM EST 5:07 PM EST
Civil Twilight 7:14 AM EST 5:37 PM EST
Nautical Twilight 6:40 AM EST 6:11 PM EST
Astronomical Twilight 6:07 AM EST 6:44 PM EST
Moon 2:49 PM EST (12/13) 4:06 AM EST (12/13)
Length of Visible Light 10h 23m
Length of Day
9h 22m
Waxing Gibbous, 88% of the Moon is Illuminated
Dec 13
Waxing Gibbous
Dec 17
Full
Dec 25
Last Quarter
Jan 1
New
Jan 7
First Quarter

Hourly Weather History & Observations

Time (EST) Temp. Windchill Dew Point Humidity Pressure Visibility Wind Dir Wind Speed Gust Speed Precip Events Conditions
12:15 AM 17.8 °F 7.5 °F 6.4 °F 61% 30.30 in 10.0 mi SSW 8.1 mph - N/A   Clear
12:35 AM 18.1 °F 7.1 °F 6.8 °F 61% 30.30 in 10.0 mi SSW 9.2 mph - N/A   Clear
12:55 AM 17.2 °F 6.8 °F 7.0 °F 64% 30.29 in 10.0 mi SSW 8.1 mph - N/A   Clear
1:15 AM 17.6 °F 6.4 °F 7.5 °F 65% 30.29 in 10.0 mi SSW 9.2 mph - N/A   Clear
1:35 AM 18.3 °F 8.2 °F 7.7 °F 63% 30.28 in 10.0 mi SSW 8.1 mph - N/A   Clear
1:55 AM 18.7 °F 8.6 °F 7.9 °F 63% 30.29 in 10.0 mi SSW 8.1 mph - N/A   Scattered Clouds
2:15 AM 19.6 °F 8.9 °F 8.6 °F 62% 30.29 in 10.0 mi SSW 9.2 mph - N/A   Mostly Cloudy
2:35 AM 20.8 °F 11.2 °F 9.7 °F 62% 30.29 in 10.0 mi SSW 8.1 mph - N/A   Overcast
2:55 AM 21.4 °F 12.8 °F 10.0 °F 62% 30.29 in 10.0 mi SSW 6.9 mph - N/A   Overcast
3:15 AM 21.7 °F 13.2 °F 10.4 °F 62% 30.29 in 10.0 mi South 6.9 mph - N/A   Overcast
3:35 AM 22.3 °F 13.9 °F 10.8 °F 61% 30.29 in 10.0 mi South 6.9 mph - N/A   Overcast
3:55 AM 22.8 °F 13.6 °F 11.1 °F 61% 30.28 in 10.0 mi South 8.1 mph - N/A   Overcast
4:15 AM 23.0 °F 13.9 °F 10.9 °F 60% 30.27 in 10.0 mi South 8.1 mph - N/A   Overcast
4:35 AM 22.8 °F 13.6 °F 10.8 °F 60% 30.27 in 10.0 mi South 8.1 mph - N/A   Overcast
4:55 AM 22.8 °F 15.5 °F 11.3 °F 61% 30.27 in 10.0 mi South 5.8 mph - N/A   Overcast
5:15 AM 22.1 °F 15.9 °F 12.2 °F 66% 30.26 in 10.0 mi SSE 4.6 mph - N/A   Overcast
5:35 AM 22.1 °F 14.7 °F 12.4 °F 66% 30.26 in 10.0 mi South 5.8 mph - N/A   Overcast
5:55 AM 23.5 °F 15.4 °F 12.4 °F 62% 30.25 in 10.0 mi South 6.9 mph - N/A   Overcast
6:15 AM 24.4 °F 14.9 °F 12.7 °F 61% 30.26 in 10.0 mi SSW 9.2 mph - N/A   Overcast
6:35 AM 24.8 °F 16.1 °F 12.9 °F 61% 30.26 in 10.0 mi SSW 8.1 mph - N/A   Overcast
6:55 AM 24.3 °F 15.4 °F 12.7 °F 62% 30.26 in 10.0 mi SSW 8.1 mph - N/A   Overcast
7:15 AM 23.2 °F 15.0 °F 11.7 °F 61% 30.26 in 10.0 mi South 6.9 mph - N/A   Scattered Clouds
7:35 AM 22.3 °F 13.9 °F 10.9 °F 62% 30.27 in 10.0 mi South 6.9 mph - N/A   Mostly Cloudy
7:55 AM 21.9 °F 12.5 °F 10.6 °F 62% 30.26 in 10.0 mi South 8.1 mph - N/A   Scattered Clouds
8:15 AM 21.7 °F 12.3 °F 10.4 °F 62% 30.26 in 10.0 mi SSW 8.1 mph - N/A   Clear
8:35 AM 21.9 °F 14.5 °F 10.4 °F 61% 30.26 in 10.0 mi South 5.8 mph - N/A   Clear
8:55 AM 23.0 °F 13.9 °F 10.6 °F 59% 30.26 in 10.0 mi South 8.1 mph - N/A   Clear
9:15 AM 23.9 °F 15.8 °F 11.3 °F 59% 30.27 in 10.0 mi SSW 6.9 mph - N/A   Clear
9:35 AM 24.6 °F 15.8 °F 11.8 °F 58% 30.26 in 10.0 mi SSW 8.1 mph - N/A   Clear
9:55 AM 25.3 °F 16.7 °F 11.8 °F 57% 30.27 in 10.0 mi SSW 8.1 mph - N/A   Clear
10:15 AM 26.4 °F 18.0 °F 12.0 °F 55% 30.28 in 10.0 mi SSW 8.1 mph - N/A   Clear
10:35 AM 27.1 °F 18.9 °F 12.2 °F 53% 30.28 in 10.0 mi SSW 8.1 mph - N/A   Clear
10:55 AM 28.0 °F 21.7 °F 12.6 °F 52% 30.28 in 10.0 mi SSW 5.8 mph - N/A   Clear
11:15 AM 28.6 °F 22.4 °F 13.1 °F 52% 30.27 in 10.0 mi SW 5.8 mph - N/A   Clear
11:35 AM 29.5 °F 21.8 °F 13.6 °F 52% 30.27 in 10.0 mi SSW 8.1 mph - N/A   Clear
11:55 AM 29.7 °F 22.8 °F 13.6 °F 51% 30.26 in 10.0 mi SW 6.9 mph - N/A   Clear
12:15 PM 30.9 °F 23.5 °F 13.8 °F 49% 30.24 in 10.0 mi SW 8.1 mph - N/A   Clear
12:35 PM 31.6 °F 24.4 °F 14.4 °F 49% 30.24 in 10.0 mi SW 8.1 mph - N/A   Clear
12:55 PM 32.0 °F 24.8 °F 15.3 °F 50% 30.23 in 10.0 mi SW 8.1 mph - N/A   Clear
1:15 PM 32.4 °F 24.6 °F 15.8 °F 51% 30.23 in 10.0 mi SSW 9.2 mph - N/A   Clear
1:35 PM 32.0 °F 24.2 °F 15.8 °F 51% 30.23 in 10.0 mi SSW 9.2 mph - N/A   Clear
1:55 PM 32.0 °F 25.6 °F 16.2 °F 52% 30.22 in 10.0 mi South 6.9 mph - N/A   Clear
2:15 PM 32.4 °F 27.9 °F 16.3 °F 52% 30.21 in 10.0 mi South 4.6 mph - N/A   Clear
2:35 PM 33.4 °F 28.1 °F 16.2 °F 49% 30.21 in 10.0 mi SSW 5.8 mph - N/A   Clear
2:55 PM 33.4 °F 29.1 °F 16.2 °F 49% 30.21 in 10.0 mi South 4.6 mph - N/A   Clear
3:15 PM 33.6 °F 29.4 °F 16.7 °F 50% 30.21 in 10.0 mi SSE 4.6 mph - N/A   Clear
3:35 PM 33.8 °F 30.8 °F 16.7 °F 50% 30.21 in 10.0 mi South 3.5 mph - N/A   Clear
3:55 PM 34.0 °F 31.0 °F 16.2 °F 48% 30.20 in 10.0 mi South 3.5 mph - N/A   Clear
4:15 PM 33.8 °F - 16.2 °F 49% 30.20 in 10.0 mi Calm Calm - N/A   Clear
4:35 PM 33.4 °F - 16.3 °F 50% 30.20 in 10.0 mi Calm Calm - N/A   Clear
4:55 PM 32.7 °F - 17.1 °F 53% 30.20 in 10.0 mi Calm Calm - N/A   Clear
5:15 PM 32.0 °F - 17.2 °F 55% 30.19 in 10.0 mi Calm Calm - N/A   Clear
5:35 PM 32.0 °F - 16.9 °F 54% 30.19 in 10.0 mi Calm Calm - N/A   Clear
5:55 PM 30.9 °F - 18.0 °F 59% 30.19 in 10.0 mi Calm Calm - N/A   Clear
6:15 PM 30.4 °F 26.9 °F 18.0 °F 60% 30.19 in 10.0 mi East 3.5 mph - N/A   Clear
6:35 PM 30.7 °F 27.3 °F 17.1 °F 57% 30.18 in 10.0 mi NE 3.5 mph - N/A   Clear
6:55 PM 30.6 °F - 17.6 °F 59% 30.19 in 10.0 mi Calm Calm - N/A   Clear
7:15 PM 30.4 °F - 18.7 °F 62% 30.19 in 10.0 mi Calm Calm - N/A   Clear
7:35 PM 30.7 °F - 18.7 °F 61% 30.20 in 10.0 mi Calm Calm - N/A   Clear
7:55 PM 30.2 °F - 19.2 °F 64% 30.21 in 10.0 mi Calm Calm - N/A   Clear
8:15 PM 29.8 °F - 20.1 °F 67% 30.21 in 10.0 mi Calm Calm - N/A   Clear
8:35 PM 29.8 °F 26.3 °F 20.1 °F 67% 30.21 in 10.0 mi SSE 3.5 mph - N/A   Scattered Clouds
8:55 PM 30.2 °F - 20.3 °F 67% 30.21 in 10.0 mi Calm Calm - N/A   Mostly Cloudy
9:15 PM 30.2 °F - 21.2 °F 69% 30.20 in 10.0 mi Calm Calm - N/A   Overcast
9:35 PM 30.4 °F - 21.9 °F 71% 30.20 in 10.0 mi Calm Calm - N/A   Mostly Cloudy
9:55 PM 31.1 °F 27.7 °F 21.0 °F 66% 30.20 in 10.0 mi SSE 3.5 mph - N/A   Mostly Cloudy
10:15 PM 31.6 °F 28.3 °F 21.0 °F 65% 30.19 in 10.0 mi South 3.5 mph - N/A   Mostly Cloudy
10:35 PM 32.0 °F - 20.8 °F 63% 30.19 in 10.0 mi Calm Calm - N/A   Overcast
10:55 PM 32.5 °F 29.3 °F 20.5 °F 61% 30.18 in 10.0 mi SE 3.5 mph - N/A   Overcast
11:15 PM 33.1 °F 26.9 °F 21.0 °F 61% 30.18 in 5.0 mi WNW 6.9 mph - N/A Snow Light Snow
11:35 PM 32.9 °F 27.5 °F 24.3 °F 71% 30.20 in 1.5 mi WNW 5.8 mph - N/A Snow Light Snow
11:55 PM 32.0 °F 27.5 °F 27.5 °F 83% 30.20 in 1.2 mi NW 4.6 mph - N/A Snow Light Snow